FW1490 Weather Reports


time (UTC)temp
F
wind
direction
speed
knots
gust
knots
rain 1hr
in
rain 24hr
in
rain mn
in
humidity
%
barometer
mb
20260906203031 91 138 11.3 20.9 0.00 0.00 0.00 43 1004.2
20260906201522 91 146 13.9 22.6 0.00 0.00 0.00 43 1004.5
20260906200035 91 184 13.9 20.9 0.00 0.00 0.00 44 1004.6
20260906194518 90 153 13.9 24.3 0.00 0.00 0.00 45 1004.8
20260906193017 90 146 10.4 24.3 0.00 0.00 0.00 47 1005.0
20260906191514 89 154 13.0 25.2 0.00 0.00 0.00 48 1005.2
20260906190014 88 140 13.0 27.8 0.00 0.00 0.00 50 1005.4
20260906190012 88 146 13.0 27.8 0.00 0.00 0.00 50 1005.4
20260906184511 88 125 14.8 25.2 0.00 0.00 0.00 48 1005.6
20260906183020 88 130 13.9 25.2 0.00 0.00 0.00 51 1005.7
20260906181542 87 150 13.9 24.3 0.00 0.00 0.00 51 1006.1
20260906180040 86 115 13.0 20.9 0.00 0.00 0.00 52 1006.2
20260906174536 86 123 12.2 24.3 0.00 0.00 0.00 54 1006.4
20260906173027 85 121 13.0 23.5 0.00 0.00 0.00 55 1006.7
20260906171523 82 140 13.0 22.6 0.00 0.00 0.00 60 1007.0
20260906170023 82 121 14.8 23.5 0.00 0.00 0.00 61 1007.1
20260906164556 82 150 11.3 16.5 0.00 0.00 0.00 62 1007.2
20260906163053 81 101 13.9 23.5 0.00 0.00 0.00 62 1007.3
20260906161548 80 110 11.3 18.2 0.00 0.00 0.00 65 1007.5
20260906160050 78 136 9.6 21.7 0.00 0.00 0.00 68 1007.3
20260906154543 77 107 12.2 20.0 0.00 0.00 0.00 68 1007.1
20260906153046 78 126 11.3 17.4 0.00 0.00 0.00 67 1007.0
20260906151537 78 113 11.3 17.4 0.00 0.00 0.00 66 1007.1
20260906150048 78 123 11.3 21.7 0.00 0.00 0.00 67 1007.0
20260906144538 74 80 7.8 12.2 0.00 0.00 0.00 75 1007.2
20260906143037 73 92 5.2 13.0 0.00 0.00 0.00 77 1007.3
20260906141537 73 107 7.0 13.0 0.00 0.00 0.00 77 1007.3
20260906140027 73 62 5.2 11.3 0.00 0.00 0.00 76 1007.4
20260906134525 72 82 7.8 12.2 0.00 0.00 0.00 78 1007.5
20260906133022 71 84 4.3 12.2 0.00 0.00 0.00 79 1007.3
20260906131525 71 43 5.2 10.4 0.00 0.00 0.00 78 1007.0
20260906130025 72 39 2.6 7.8 0.00 0.00 0.00 77 1006.8
20260906124512 72 76 4.3 9.6 0.00 0.00 0.00 77 1006.6
20260906123013 72 31 3.5 4.3 0.00 0.00 0.00 76 1006.5
20260906121510 72 16 0.9 7.8 0.00 0.00 0.00 77 1006.0
20260906120005 73 343 4.3 7.8 0.00 0.00 0.00 75 1005.9
20260906114501 73 221 1.7 4.3 0.00 0.00 0.00 75 1005.4
20260906113105 72 184 1.7 3.5 0.00 0.00 0.00 76 1005.2
20260906111530 73 180 0.0 2.6 0.00 0.00 0.00 76 1005.2
20260906110039 72 161 0.0 0.9 0.00 0.00 0.00 77 1005.2
20260906104527 72 161 0.0 0.0 0.00 0.00 0.00 77 1005.2
20260906103026 72 161 0.0 0.0 0.00 0.00 0.00 77 1005.3
20260906101526 72 161 0.0 0.0 0.00 0.00 0.00 77 1005.2
20260906100024 72 161 0.0 3.5 0.00 0.00 0.00 77 1005.1
20260906094530 72 140 1.7 4.3 0.00 0.00 0.00 77 1004.9
20260906093022 72 167 3.5 5.2 0.00 0.00 0.00 78 1005.0
20260906091521 72 176 3.5 7.0 0.00 0.00 0.00 78 1005.0
20260906090020 72 173 5.2 7.8 0.00 0.00 0.00 80 1005.0
20260906084515 73 136 6.1 9.6 0.00 0.00 0.00 75 1004.8
20260906083111 75 145 6.1 11.3 0.00 0.00 0.00 68 1004.9
20260906081526 76 192 6.1 9.6 0.00 0.00 0.00 65 1004.6
20260906080007 76 165 6.1 12.2 0.00 0.00 0.00 67 1004.8
20260906074536 75 178 6.1 9.6 0.00 0.00 0.00 69 1004.9
20260906073035 75 121 3.5 9.6 0.00 0.00 0.00 71 1005.0
20260906071504 75 123 4.3 9.6 0.00 0.00 0.00 70 1005.2
20260906070002 75 108 6.1 8.7 0.00 0.00 0.00 71 1005.2
20260906064559 75 117 4.3 7.8 0.00 0.00 0.00 71 1005.1
20260906063031 74 134 3.5 7.8 0.00 0.00 0.00 71 1004.9
20260906061534 75 112 3.5 8.7 0.00 0.00 0.00 70 1004.9
20260906060019 75 159 4.3 7.8 0.00 0.00 0.00 70 1004.8
20260906054517 75 163 4.3 7.8 0.00 0.00 0.00 69 1004.6
20260906053017 75 132 5.2 7.0 0.00 0.00 0.00 68 1004.4
20260906051512 75 145 3.5 7.0 0.00 0.00 0.00 68 1004.3
20260906050006 76 134 3.5 7.0 0.00 0.00 0.00 67 1004.2
20260906044505 76 146 4.3 7.0 0.00 0.00 0.00 66 1004.2
20260906043004 77 136 3.5 8.7 0.00 0.00 0.00 64 1004.2
20260906041505 78 150 6.1 8.7 0.00 0.00 0.00 63 1004.6
20260906040004 79 123 6.1 9.6 0.00 0.00 0.00 61 1004.6
20260906034606 79 167 6.1 13.0 0.00 0.00 0.00 60 1004.5
20260906034501 79 134 7.0 13.0 0.00 0.00 0.00 60 1004.6
20260906033100 80 144 7.0 13.0 0.00 0.00 0.00 60 1004.4
20260906031603 80 127 7.8 12.2 0.00 0.00 0.00 61 1004.2
20260906030028 79 119 4.3 8.7 0.00 0.00 0.00 62 1004.4
20260906024528 80 103 4.3 7.8 0.00 0.00 0.00 61 1004.2
20260906023024 81 128 5.2 11.3 0.00 0.00 0.00 60 1003.9
20260906021524 81 118 7.8 11.3 0.00 0.00 0.00 58 1003.6
20260906020030 82 138 7.8 13.9 0.00 0.00 0.00 57 1003.6
20260906014522 82 123 6.1 11.3 0.00 0.00 0.00 56 1003.4
20260906013020 86 123 7.8 11.3 0.00 0.00 0.00 50 1003.2
20260906011519 87 155 4.3 8.7 0.00 0.00 0.00 46 1002.6
20260906010016 88 164 6.1 10.4 0.00 0.00 0.00 45 1002.5
20260906004517 90 143 6.1 13.9 0.00 0.00 0.00 43 1002.6
20260906003022 91 153 7.8 17.4 0.00 0.00 0.00 42 1002.6
20260906001514 92 157 11.3 18.2 0.00 0.00 0.00 41 1002.5
20260906000013 93 184 8.7 13.0 0.00 0.00 0.00 39 1002.4
20260905234512 94 184 7.8 19.1 0.00 0.00 0.00 38 1002.4
20260905233011 94 138 7.8 14.8 0.00 0.00 0.00 38 1002.4
20260905231506 94 169 6.1 18.2 0.00 0.00 0.00 41 1002.3
20260905230003 94 117 8.7 16.5 0.00 0.00 0.00 41 1002.2
20260905224502 94 127 7.8 15.6 0.00 0.00 0.00 41 1002.1
20260905223056 94 151 7.8 17.4 0.00 0.00 0.00 42 1002.1
20260905221559 94 148 8.7 15.6 0.00 0.00 0.00 44 1002.1
20260905220100 94 110 7.0 14.8 0.00 0.00 0.00 44 1002.2
20260905214550 93 136 7.8 16.5 0.00 0.00 0.00 44 1002.3
20260905213020 93 126 9.6 16.5 0.00 0.00 0.00 42 1002.5
20260905211535 93 146 9.6 16.5 0.00 0.00 0.00 42 1002.8
20260905210015 92 166 9.6 14.8 0.00 0.00 0.00 44 1003.0
20260905204511 92 155 8.7 16.5 0.00 0.00 0.00 45 1003.3